This demonstration page uses our WeatherBlox Daily Observations layout. Learn more.

Left ArrowRight Arrow

Hourly Observations for December 14, 2020

Temp ( °F °C ) Dew Point ( °F °C ) Humidity (%) Winds ( mph kmh ) Pressure ( in mb ) Visibility ( mi km ) Precip ( " mm )
12:52 am 00:52 Clear 18 -7.8 13 -10.6 81 81 N 6 9 30.33 1027 10 16 0.00 0.00
1:52 am 01:52 Clear 15 -9.4 11 -11.7 84 84 N 10 17 30.33 1027 10 16 0.00 0.00
2:52 am 02:52 Clear 13 -10.6 9 -12.8 84 84 N 6 9 30.35 1028 10 16 0.00 0.00
3:52 am 03:52 Clear 12 -11.1 8 -13.3 84 84 N 8 13 30.35 1028 10 16 0.00 0.00
4:52 am 04:52 Clear 10 -12.2 7 -13.9 87 87 N 7 11 30.36 1028 10 16 0.00 0.00
5:52 am 05:52 Clear 9 -12.8 7 -13.9 92 92 Calm 30.40 1030 10 16 0.00 0.00
6:52 am 06:52 Clear 11 -11.7 7 -13.9 84 84 Calm 30.41 1030 10 16 0.00 0.00
7:52 am 07:52 Partly Cloudy 10 -12.2 7 -13.9 87 87 NNE 5 7 30.41 1030 10 16 0.00 0.00
8:52 am 08:52 Partly Cloudy 11 -11.7 7 -13.9 84 84 N 8 13 30.42 1030 10 16 0.00 0.00
9:52 am 09:52 Partly Cloudy 15 -9.4 9 -12.8 77 77 N 7 11 30.43 1031 10 16 0.00 0.00
10:52 am 10:52 Mostly Cloudy 18 -7.8 11 -11.7 74 74 NNW 3 6 30.45 1031 10 16 0.00 0.00
11:52 am 11:52 Mostly Cloudy 19 -7.2 12 -11.1 74 74 NNW 5 7 30.43 1031 10 16 0.00 0.00
12:52 pm 12:52 Mostly Cloudy 20 -6.7 13 -10.6 74 74 N 3 6 30.40 1029 10 16 0.00 0.00
1:52 pm 13:52 Cloudy 20 -6.7 13 -10.6 74 74 N 6 9 30.38 1029 10 16 0.00 0.00
2:52 pm 14:52 Cloudy 20 -6.7 12 -11.1 71 71 E 6 9 30.37 1028 10 16 0.00 0.00
3:52 pm 15:52 Cloudy 20 -6.7 11 -11.7 68 68 E 3 6 30.39 1029 10 16 0.00 0.00
4:52 pm 16:52 Cloudy 19 -7.2 11 -11.7 71 71 NE 6 9 30.40 1029 10 16 0.00 0.00
5:52 pm 17:52 Cloudy 19 -7.2 11 -11.7 71 71 E 5 7 30.39 1029 10 16 0.00 0.00
6:52 pm 18:52 Cloudy 18 -7.8 11 -11.7 74 74 E 3 6 30.38 1029 10 16 0.00 0.00
7:52 pm 19:52 Cloudy 18 -7.8 12 -11.1 77 77 SE 5 7 30.39 1029 10 16 0.00 0.00
8:52 pm 20:52 Cloudy 18 -7.8 11 -11.7 74 74 E 9 15 30.37 1028 10 16 0.00 0.00
9:52 pm 21:52 Cloudy 19 -7.2 11 -11.7 71 71 SE 3 6 30.37 1028 10 16 0.00 0.00
10:52 pm 22:52 Cloudy 18 -7.8 11 -11.7 74 74 E 5 7 30.37 1029 10 16 0.00 0.00
11:52 pm 23:52 Cloudy 18 -7.8 12 -11.1 77 77 NE 3 6 30.37 1029 10 16 0.00 0.00

Powered by AerisWeather